Madison, SD

4:50 AM CST on December 10, 2019 (GMT -0600)
Madison Municipal

Weather History for KMDS - October, 2019

Change the Weather History Date:

Tuesday, October 29, 2019

  Actual Average Record
Temperature  
Mean Temperature 26 °F -  
Max Temperature 32 °F 52 °F 62 °F (2018)
Min Temperature 17 °F 30 °F 26 °F (2010)
Degree Days  
Heating Degree Days 40    
Moisture  
Dew Point 18 °F    
Average Humidity 76    
Maximum Humidity 100    
Minimum Humidity 44    
Precipitation  
Precipitation 0.04 in - - ()
Sea Level Pressure  
Sea Level Pressure 30.25 in    
Wind  
Wind Speed 8 mph ()    
Max Wind Speed 16 mph    
Max Gust Speed 24 mph    
Visibility 10.0 miles    
Events Rain , Snow    
Averages and records for this station are not official NWS values.
T = Trace of Precipitation, MM = Missing Value Source: Averaged Metar Reports

Daily Weather History Graph

Daily Weather History Graph

Search for Another Location

Airport or City:

Astronomy

Oct. 29, 2019 Rise Set
Actual Time 8:00 AM CDT 6:22 PM CDT
Civil Twilight 7:30 AM CDT 6:52 PM CDT
Nautical Twilight 6:56 AM CDT 7:26 PM CDT
Astronomical Twilight 6:23 AM CDT 8:00 PM CDT
Moon 9:37 AM CDT (10/29) 7:45 PM CDT (10/29)
Length of Visible Light 11h 21m
Length of Day
10h 22m
Waxing Crescent, 3% of the Moon is Illuminated
Oct 29
Waxing Crescent
Nov 4
First Quarter
Nov 12
Full
Nov 19
Last Quarter
Nov 26
New

Hourly Weather History & Observations

Time (CDT) Temp. Windchill Dew Point Humidity Pressure Visibility Wind Dir Wind Speed Gust Speed Precip Events Conditions
12:00 AM 23.0 °F 17.0 °F 19.4 °F 86% 30.11 in 10.0 mi SSW 4.6 mph - N/A   Clear
12:15 AM 23.0 °F 17.0 °F 19.4 °F 86% 30.10 in 10.0 mi SSW 4.6 mph - N/A   Clear
12:35 AM 23.0 °F 18.4 °F 19.4 °F 86% 30.11 in 10.0 mi West 3.5 mph - N/A   Clear
12:40 AM 23.0 °F 18.4 °F 19.4 °F 86% 30.11 in 10.0 mi WNW 3.5 mph - N/A   Clear
12:55 AM 23.0 °F 17.0 °F 19.4 °F 86% 30.10 in 10.0 mi WNW 4.6 mph - N/A   Clear
1:15 AM 23.0 °F 18.4 °F 21.2 °F 93% 30.11 in 10.0 mi WNW 3.5 mph - N/A   Clear
1:35 AM 23.0 °F 18.4 °F 23.0 °F 100% 30.10 in 10.0 mi NW 3.5 mph - N/A   Clear
1:40 AM 23.0 °F 18.4 °F 23.0 °F 100% 30.10 in 10.0 mi WNW 3.5 mph - N/A   Clear
2:15 AM 23.0 °F 17.0 °F 21.2 °F 93% 30.11 in 10.0 mi SW 4.6 mph - N/A   Clear
2:35 AM 21.2 °F 13.6 °F 21.2 °F 100% 30.11 in 10.0 mi SSW 5.8 mph - N/A   Clear
2:40 AM 19.4 °F 10.4 °F 19.4 °F 100% 30.11 in 10.0 mi South 6.9 mph - N/A   Clear
2:55 AM 19.4 °F 11.5 °F 19.4 °F 100% 30.12 in 10.0 mi South 5.8 mph - N/A   Clear
3:15 AM 21.2 °F 14.9 °F 21.2 °F 100% 30.13 in 10.0 mi SSW 4.6 mph - N/A   Clear
3:35 AM 21.2 °F 16.4 °F 21.2 °F 100% 30.13 in 10.0 mi WSW 3.5 mph - N/A   Clear
3:40 AM 23.0 °F 17.0 °F 23.0 °F 100% 30.13 in 10.0 mi West 4.6 mph - N/A   Clear
3:55 AM 23.0 °F 17.0 °F 19.4 °F 86% 30.13 in 10.0 mi WSW 4.6 mph - N/A   Partly Cloudy
4:15 AM 23.0 °F - 21.2 °F 93% 30.13 in 10.0 mi Calm Calm - N/A   Mostly Cloudy
4:35 AM 21.2 °F 13.6 °F 21.2 °F 100% 30.14 in 10.0 mi WNW 5.8 mph - N/A   Scattered Clouds
4:55 AM 23.0 °F 17.0 °F 21.2 °F 93% 30.14 in 10.0 mi WNW 4.6 mph - N/A   Mostly Cloudy
5:00 AM 21.2 °F 13.6 °F 21.2 °F 100% 30.15 in 10.0 mi WNW 5.8 mph - N/A   Mostly Cloudy
5:15 AM 23.0 °F 15.8 °F 21.2 °F 93% 30.15 in 10.0 mi WNW 5.8 mph - N/A   Mostly Cloudy
5:20 AM 23.0 °F 14.7 °F 21.2 °F 93% 30.16 in 10.0 mi WNW 6.9 mph - N/A   Mostly Cloudy
5:35 AM 24.8 °F 16.9 °F 23.0 °F 93% 30.16 in 10.0 mi NW 6.9 mph - N/A   Mostly Cloudy
5:55 AM 24.8 °F 15.3 °F 24.8 °F 100% 30.17 in 10.0 mi NNW 9.2 mph - N/A   Overcast
6:15 AM 26.6 °F 16.8 °F 26.6 °F 100% 30.18 in 10.0 mi North 10.4 mph - N/A   Overcast
6:20 AM 26.6 °F 16.8 °F 26.6 °F 100% 30.18 in 10.0 mi North 10.4 mph - N/A   Overcast
6:35 AM 26.6 °F 15.7 °F 26.6 °F 100% 30.18 in 10.0 mi North 12.7 mph - N/A   Overcast
6:55 AM 26.6 °F 15.2 °F 24.8 °F 93% 30.18 in 10.0 mi NNE 13.8 mph - N/A   Overcast
7:15 AM 24.8 °F 13.4 °F 21.2 °F 86% 30.18 in 10.0 mi NNE 12.7 mph 19.6 mph N/A   Overcast
7:20 AM 24.8 °F 13.4 °F 21.2 °F 86% 30.19 in 10.0 mi North 12.7 mph 19.6 mph N/A   Overcast
7:35 AM 24.8 °F 14.6 °F 19.4 °F 80% 30.20 in 10.0 mi North 10.4 mph - N/A   Overcast
7:40 AM 24.8 °F 14.6 °F 19.4 °F 80% 30.21 in 10.0 mi North 10.4 mph - N/A   Overcast
7:55 AM 24.8 °F 15.3 °F 19.4 °F 80% 30.21 in 10.0 mi North 9.2 mph - N/A   Overcast
8:15 AM 24.8 °F 16.9 °F 21.2 °F 86% 30.22 in 10.0 mi North 6.9 mph - N/A   Mostly Cloudy
8:20 AM 24.8 °F 16.9 °F 23.0 °F 93% 30.22 in 10.0 mi North 6.9 mph - N/A   Mostly Cloudy
8:35 AM 24.8 °F 16.9 °F 23.0 °F 93% 30.23 in 10.0 mi North 6.9 mph - N/A   Scattered Clouds
8:55 AM 24.8 °F 15.3 °F 24.8 °F 100% 30.25 in 10.0 mi North 9.2 mph - N/A   Scattered Clouds
9:00 AM 24.8 °F 14.0 °F 24.8 °F 100% 30.25 in 10.0 mi North 11.5 mph - N/A   Scattered Clouds
9:15 AM 24.8 °F 13.4 °F 23.0 °F 93% 30.26 in 10.0 mi NNW 12.7 mph - N/A   Mostly Cloudy
9:20 AM 24.8 °F 13.4 °F 23.0 °F 93% 30.27 in 10.0 mi NNW 12.7 mph - N/A   Mostly Cloudy
9:35 AM 24.8 °F 14.0 °F 23.0 °F 93% 30.27 in 10.0 mi North 11.5 mph 17.3 mph N/A Snow Light Snow
9:40 AM 24.8 °F 14.6 °F 23.0 °F 93% 30.27 in 10.0 mi North 10.4 mph 17.3 mph N/A Snow Light Snow
9:55 AM 26.6 °F 15.7 °F 24.8 °F 93% 30.27 in 10.0 mi NNW 12.7 mph - 0.01 in Snow Light Snow
10:15 AM 26.6 °F 15.2 °F 24.8 °F 93% 30.28 in 9.0 mi NW 13.8 mph - 0.02 in Snow Light Snow
10:20 AM 26.6 °F 14.7 °F 24.8 °F 93% 30.28 in 10.0 mi NNW 15.0 mph - 0.03 in Snow Light Snow
10:35 AM 24.8 °F 12.4 °F 24.8 °F 100% 30.29 in 10.0 mi NNW 15.0 mph - 0.03 in Snow Light Snow
10:40 AM 26.6 °F 14.7 °F 24.8 °F 93% 30.28 in 10.0 mi NW 15.0 mph - 0.03 in Snow Light Snow
10:55 AM 24.8 °F 11.9 °F 23.0 °F 93% 30.30 in 10.0 mi NNW 16.1 mph - 0.03 in Rain Light Freezing Rain
11:15 AM 26.6 °F 15.2 °F 21.2 °F 80% 30.30 in 10.0 mi NNW 13.8 mph 19.6 mph N/A   Mostly Cloudy
11:20 AM 26.6 °F 15.2 °F 21.2 °F 80% 30.30 in 10.0 mi NNW 13.8 mph 19.6 mph N/A   Mostly Cloudy
11:35 AM 26.6 °F 15.7 °F 21.2 °F 80% 30.31 in 10.0 mi NW 12.7 mph 19.6 mph N/A   Overcast
11:40 AM 26.6 °F 15.2 °F 21.2 °F 80% 30.31 in 10.0 mi NNW 13.8 mph 19.6 mph N/A   Overcast
11:55 AM 26.6 °F 14.7 °F 19.4 °F 74% 30.31 in 10.0 mi NNW 15.0 mph 24.2 mph N/A   Overcast
12:15 PM 26.6 °F 15.2 °F 17.6 °F 69% 30.32 in 10.0 mi NNW 13.8 mph - N/A   Scattered Clouds
12:20 PM 26.6 °F 15.7 °F 17.6 °F 69% 30.31 in 10.0 mi NW 12.7 mph - N/A   Mostly Cloudy
12:35 PM 28.4 °F 18.0 °F 17.6 °F 64% 30.31 in 10.0 mi NW 12.7 mph 20.7 mph N/A   Mostly Cloudy
12:40 PM 28.4 °F 18.0 °F 17.6 °F 64% 30.31 in 10.0 mi NW 12.7 mph 18.4 mph N/A   Overcast
12:55 PM 28.4 °F 17.0 °F 15.8 °F 59% 30.30 in 10.0 mi NW 15.0 mph - N/A   Overcast
1:15 PM 28.4 °F 17.0 °F 15.8 °F 59% 30.29 in 10.0 mi NNW 15.0 mph 19.6 mph N/A   Scattered Clouds
1:20 PM 30.2 °F 19.3 °F 15.8 °F 55% 30.29 in 10.0 mi NW 15.0 mph 19.6 mph N/A   Scattered Clouds
1:35 PM 30.2 °F 20.2 °F 15.8 °F 55% 30.28 in 10.0 mi NW 12.7 mph 21.9 mph N/A   Clear
1:40 PM 30.2 °F 18.9 °F 15.8 °F 55% 30.29 in 10.0 mi NW 16.1 mph - N/A   Clear
2:35 PM 30.2 °F 19.3 °F 12.2 °F 47% 30.27 in 10.0 mi NW 15.0 mph 19.6 mph N/A   Clear
2:40 PM 32.0 °F 22.1 °F 12.2 °F 44% 30.27 in 10.0 mi NW 13.8 mph 19.6 mph N/A   Clear
2:55 PM 30.2 °F 19.3 °F 12.2 °F 47% 30.28 in 10.0 mi NW 15.0 mph 20.7 mph N/A   Clear
3:00 PM 30.2 °F 19.8 °F 12.2 °F 47% 30.28 in 10.0 mi NW 13.8 mph - N/A   Clear
3:15 PM 30.2 °F 19.3 °F 14.0 °F 51% 30.28 in 10.0 mi NW 15.0 mph 19.6 mph N/A   Clear
3:35 PM 30.2 °F 19.8 °F 14.0 °F 51% 30.28 in 10.0 mi NNW 13.8 mph - N/A   Clear
3:40 PM 30.2 °F 19.8 °F 12.2 °F 47% 30.29 in 10.0 mi NW 13.8 mph - N/A   Clear
3:55 PM 30.2 °F 19.3 °F 12.2 °F 47% 30.29 in 10.0 mi NW 15.0 mph 18.4 mph N/A   Clear
4:00 PM 30.2 °F 20.8 °F 12.2 °F 47% 30.29 in 10.0 mi NW 11.5 mph 17.3 mph N/A   Clear
4:15 PM 30.2 °F 19.8 °F 10.4 °F 44% 30.29 in 10.0 mi NW 13.8 mph - N/A   Clear
4:35 PM 28.4 °F 17.5 °F 10.4 °F 47% 30.30 in 10.0 mi NW 13.8 mph - N/A   Clear
4:55 PM 28.4 °F 17.5 °F 12.2 °F 51% 30.29 in 10.0 mi WNW 13.8 mph - N/A   Clear
5:00 PM 28.4 °F 18.5 °F 12.2 °F 51% 30.29 in 10.0 mi WNW 11.5 mph - N/A   Clear
5:15 PM 28.4 °F 17.5 °F 10.4 °F 47% 30.30 in 10.0 mi NW 13.8 mph - N/A   Clear
5:20 PM 28.4 °F 18.0 °F 10.4 °F 47% 30.30 in 10.0 mi NW 12.7 mph - N/A   Clear
5:35 PM 28.4 °F 18.0 °F 10.4 °F 47% 30.30 in 10.0 mi NW 12.7 mph 18.4 mph N/A   Clear
5:40 PM 28.4 °F 18.5 °F 10.4 °F 47% 30.30 in 10.0 mi NW 11.5 mph - N/A   Clear
5:55 PM 26.6 °F 16.2 °F 10.4 °F 51% 30.30 in 10.0 mi NW 11.5 mph - N/A   Clear
6:00 PM 26.6 °F 16.8 °F 10.4 °F 51% 30.30 in 10.0 mi NW 10.4 mph - N/A   Clear
6:15 PM 26.6 °F 17.5 °F 10.4 °F 51% 30.30 in 10.0 mi WNW 9.2 mph - N/A   Clear
6:20 PM 26.6 °F 16.2 °F 10.4 °F 51% 30.31 in 10.0 mi NW 11.5 mph - N/A   Clear
6:35 PM 26.6 °F 18.2 °F 12.2 °F 55% 30.31 in 10.0 mi WNW 8.1 mph - N/A   Clear
6:55 PM 24.8 °F 16.9 °F 12.2 °F 59% 30.31 in 10.0 mi WNW 6.9 mph - N/A   Clear
7:15 PM 24.8 °F 17.9 °F 14.0 °F 64% 30.32 in 10.0 mi WNW 5.8 mph - N/A   Clear
7:20 PM 24.8 °F 17.9 °F 14.0 °F 64% 30.32 in 10.0 mi West 5.8 mph - N/A   Clear
7:40 PM 24.8 °F 17.9 °F 12.2 °F 59% 30.33 in 10.0 mi West 5.8 mph - N/A   Clear
7:55 PM 23.0 °F 15.8 °F 14.0 °F 68% 30.33 in 10.0 mi WNW 5.8 mph - N/A   Clear
8:15 PM 23.0 °F 15.8 °F 14.0 °F 68% 30.33 in 10.0 mi WNW 5.8 mph - N/A   Clear
8:35 PM 23.0 °F 14.7 °F 14.0 °F 68% 30.34 in 10.0 mi West 6.9 mph - N/A   Clear
8:40 PM 23.0 °F 14.7 °F 14.0 °F 68% 30.34 in 10.0 mi West 6.9 mph - N/A   Clear
8:55 PM 23.0 °F 14.7 °F 14.0 °F 68% 30.34 in 10.0 mi West 6.9 mph - N/A   Clear
9:15 PM 23.0 °F 14.7 °F 14.0 °F 68% 30.35 in 10.0 mi West 6.9 mph - N/A   Clear
9:20 PM 23.0 °F 15.8 °F 14.0 °F 68% 30.35 in 10.0 mi WNW 5.8 mph - N/A   Clear
9:35 PM 23.0 °F 14.7 °F 14.0 °F 68% 30.36 in 10.0 mi West 6.9 mph - N/A   Clear
9:40 PM 23.0 °F 13.9 °F 14.0 °F 68% 30.36 in 10.0 mi West 8.1 mph - N/A   Clear
9:55 PM 23.0 °F 14.7 °F 14.0 °F 68% 30.36 in 10.0 mi WNW 6.9 mph - N/A   Clear
10:15 PM 21.2 °F 12.6 °F 14.0 °F 74% 30.36 in 10.0 mi WNW 6.9 mph - N/A   Clear
10:20 PM 21.2 °F 12.6 °F 14.0 °F 74% 30.36 in 10.0 mi WNW 6.9 mph - N/A   Clear
10:35 PM 21.2 °F 9.5 °F 14.0 °F 74% 30.36 in 10.0 mi NW 11.5 mph - N/A   Clear
10:55 PM 19.4 °F 7.9 °F 14.0 °F 80% 30.36 in 10.0 mi NW 10.4 mph - N/A   Clear
11:15 PM 19.4 °F 9.5 °F 15.8 °F 86% 30.36 in 10.0 mi NW 8.1 mph - N/A   Clear
11:20 PM 19.4 °F 10.4 °F 15.8 °F 86% 30.36 in 10.0 mi NW 6.9 mph - N/A   Clear
11:35 PM 19.4 °F 11.5 °F 15.8 °F 86% 30.36 in 10.0 mi NW 5.8 mph - N/A   Clear
11:55 PM 17.6 °F 12.3 °F 15.8 °F 93% 30.36 in 10.0 mi WNW 3.5 mph - N/A   Clear